Location: Mentone
(34.5413°N, 85.5351°W)
Time: 19:20:24
(UTC-05:00)

ADEOS Rocket - Visible Passes

Search period start: 01 September 2015 00:00
Search period end: 11 September 2015 00:00
Orbit: 859 x 1307 km, 98.7° (Epoch: 31 August)

Date Brightness Start Highest point End Pass type
(mag) Time Alt. Az. Time Alt. Az. Time Alt. Az.
02 Sep 5.7 20:11:37 10° SW 20:17:29 24° W 20:22:46 10° NW visible
03 Sep 4.3 19:21:01 10° S 19:28:20 56° W 19:35:01 10° NNW visible
04 Sep 5.9 20:20:07 10° SW 20:25:22 20° W 20:30:00 10° NW visible
05 Sep 4.5 19:29:02 10° S 19:36:08 48° W 19:42:36 10° NNW visible
06 Sep 6.0 20:28:48 10° SW 20:33:15 16° W 20:37:04 10° WNW visible
07 Sep 4.8 19:37:08 10° SSW 19:43:57 40° W 19:50:07 10° NNW visible
08 Sep 6.1 20:37:50 10° WSW 20:41:09 13° W 20:43:50 10° WNW visible
09 Sep 5.1 19:45:18 10° SSW 19:51:46 34° W 19:57:35 10° NW visible
10 Sep 6.4 20:48:13 10° W 20:49:04 10° W 20:49:14 10° W visible
